EW6171 Weather Reports


time (UTC)temp
F
wind
direction
speed
knots
gust
knots
rain 1hr
in
rain 24hr
in
rain mn
in
humidity
%
barometer
mb
20260503021419 0 10 2.6 3.5 0.00 0.00 0.00 1016.7
20260503020906 0 342 2.6 3.5 0.00 0.00 0.00 1016.8
20260503020402 0 344 1.7 2.6 0.00 0.00 0.00 1016.8
20260503020125 0 10 0.9 2.6 0.00 0.00 0.00 1016.9
20260503015346 0 357 0.0 2.6 0.00 0.00 0.00 1016.8
20260503014839 0 357 0.0 0.9 0.00 0.00 0.00 1016.7
20260503014332 0 10 0.0 0.9 0.00 0.00 0.00 1016.7
20260503014058 0 10 0.0 0.9 0.00 0.00 0.00 1016.7
20260503013317 0 15 0.0 0.9 0.00 0.00 0.00 1016.7
20260503012806 0 21 0.0 0.9 0.00 0.00 0.00 1016.6
20260503012535 0 21 0.0 0.9 0.00 0.00 0.00 1016.6
20260503011750 0 21 0.0 0.9 0.00 0.01 0.00 1016.5
20260503011232 0 21 0.0 0.9 0.00 0.01 0.00 1016.6
20260503010953 0 21 0.0 0.0 0.00 0.01 0.00 1016.5
20260503010212 0 22 0.0 2.6 0.00 0.01 0.00 1016.5
20260503005703 0 29 0.0 2.6 0.00 0.01 0.00 1016.5
20260503005424 0 25 0.0 0.9 0.00 0.01 0.00 1016.5
20260503004642 0 15 0.0 2.6 0.00 0.01 0.00 1016.5
20260503004132 0 24 0.0 2.6 0.00 0.01 0.00 1016.3
20260503003622 0 19 0.0 2.6 0.00 0.01 0.00 1016.3
20260503003343 0 24 0.9 3.5 0.00 0.01 0.00 1016.3
20260503002602 0 45 1.7 7.0 0.00 0.02 0.00 1016.2
20260503002052 0 28 3.5 7.0 0.00 0.03 0.00 1016.1
20260503001542 0 10 2.6 7.8 0.00 0.04 0.00 1016.1
20260503001033 0 10 2.6 7.8 0.00 0.05 0.00 1016.1
20260503000523 0 31 3.5 7.8 0.00 0.05 0.00 1016.1
20260503000012 0 10 4.3 9.6 0.00 0.06 0.00 1016.1
20260502235504 0 10 4.3 9.6 0.00 0.07 0.00 1016.1
20260502234955 0 10 4.3 8.7 0.00 0.08 0.00 1016.1
20260502234451 0 10 6.1 8.7 0.00 0.08 0.00 1015.9
20260502233940 0 10 7.0 12.2 0.00 0.08 0.00 1016.0
20260502233428 0 10 7.8 12.2 0.00 0.08 0.00 1015.9
20260502232918 0 56 7.0 10.4 0.00 0.08 0.00 1015.9
20260502232408 0 54 4.3 9.6 0.00 0.09 0.00 1015.9
20260502231858 0 21 5.2 9.6 0.00 0.10 0.00 1015.7
20260502231348 0 47 6.1 9.6 0.00 0.13 0.00 1015.7
20260502230830 0 51 6.1 9.6 0.00 0.18 0.00 1015.7
20260502230320 0 10 7.0 10.4 0.00 0.19 0.00 1015.8
20260502225810 0 54 6.1 9.6 0.00 0.19 0.00 1015.7
20260502225258 0 51 6.1 11.3 0.00 0.19 0.00 1015.6
20260502224749 0 10 6.1 11.3 0.00 0.22 0.00 1015.6
20260502224238 0 49 5.2 10.4 0.00 0.36 0.00 1015.6
20260502223728 0 10 7.0 12.2 0.00 0.36 0.00 1015.5
20260502223447 0 21 7.0 13.0 0.00 0.36 0.00 1015.5
20260502222704 0 46 6.1 13.0 0.00 0.36 0.00 1015.5
20260502222153 0 22 7.0 12.2 0.00 0.36 0.00 1015.5
20260502221642 0 10 6.1 12.2 0.00 0.36 0.00 1015.5
20260502221132 0 10 6.1 12.2 0.00 0.36 0.00 1015.5
20260502220622 0 59 7.0 12.2 0.00 0.36 0.00 1015.6
20260502220112 0 10 7.0 12.2 0.00 0.36 0.00 1015.5
20260502215602 0 15 7.0 12.2 0.00 0.36 0.00 1015.6
20260502215052 0 10 6.1 11.3 0.00 0.36 0.00 1015.6
20260502214543 0 10 7.0 12.2 0.00 0.36 0.00 1015.6
20260502214033 0 5 7.0 12.2 0.00 0.36 0.00 1015.6
20260502213523 0 48 8.7 11.3 0.00 0.36 0.00 1015.7
20260502213242 0 10 8.7 12.2 0.00 0.36 0.00 1015.7
20260502212500 0 10 7.8 12.2 0.00 0.36 0.00 1015.8
20260502211943 0 27 7.8 11.3 0.00 0.36 0.00 1015.9
20260502211432 0 10 8.7 13.0 0.00 0.36 0.00 1015.9
20260502210922 0 57 8.7 13.0 0.00 0.36 0.00 1015.9
20260502210413 0 59 7.8 13.0 0.00 0.36 0.00 1015.9
20260502205855 0 10 9.6 13.0 0.00 0.36 0.00 1016.0
20260502205344 0 38 9.6 13.0 0.00 0.36 0.00 1016.0
20260502204835 0 59 8.7 13.0 0.00 0.36 0.00 1016.1
20260502204324 0 24 8.7 13.0 0.00 0.36 0.00 1016.0
20260502203815 0 47 8.7 13.0 0.00 0.36 0.00 1016.1
20260502203257 0 5 7.8 13.0 0.00 0.36 0.00 1016.0
20260502202747 0 5 8.7 13.0 0.00 0.37 0.00 1016.2
20260502202236 0 15 8.7 13.0 0.00 0.37 0.00 1016.2
20260502201737 0 10 7.8 12.2 0.00 0.37 0.00 1016.2
20260502201226 0 20 9.6 13.9 0.00 0.37 0.00 1016.2
20260502200717 0 15 9.6 13.9 0.00 0.37 0.00 1016.1
20260502200438 0 10 9.6 13.0 0.00 0.37 0.00 1016.3
20260502195657 0 10 8.7 13.0 0.00 0.38 0.00 1016.3
20260502195146 0 10 8.7 13.0 0.00 0.44 0.00 1016.3
20260502194637 0 10 8.7 13.0 0.00 0.90 0.00 1016.3
20260502194127 0 46 9.6 13.9 0.00 1.32 0.00 1016.2
20260502193616 0 10 9.6 13.9 0.00 1.33 0.00 1016.4
20260502193102 0 67 9.6 12.2 0.00 1.33 0.00 1016.5
20260502192555 0 47 10.4 13.0 0.00 1.33 0.00 1016.5
20260502192045 0 59 10.4 13.9 0.00 1.33 0.00 1016.5
20260502191534 0 46 10.4 14.8 0.00 1.33 0.00 1016.6
20260502191024 0 40 9.6 14.8 0.00 1.33 0.00 1016.5
20260502190745 0 19 9.6 13.0 0.00 1.33 0.00 1016.5
20260502190236 0 39 9.6 13.0 0.00 1.33 0.00 1016.5
20260502185457 0 10 10.4 13.0 0.00 1.33 0.00 1016.6
20260502184954 0 43 10.4 13.9 0.00 1.33 0.00 1016.8
20260502184444 0 38 9.6 13.0 0.00 1.33 0.00 1016.9
20260502183934 0 10 9.6 13.9 0.00 1.33 0.00 1016.9
20260502183426 0 29 9.6 13.9 0.00 1.33 0.00 1017.0
20260502183140 0 50 9.6 13.9 0.00 1.33 0.00 1017.0
20260502182401 0 45 8.7 13.9 0.00 1.33 0.00 1017.1
20260502181856 0 53 9.6 13.9 0.00 1.33 0.00 1017.1
20260502181346 0 59 10.4 13.9 0.00 1.33 0.00 1017.2
20260502180840 0 10 9.6 13.0 0.00 1.33 0.00 1017.3
20260502180334 0 15 9.6 13.0 0.00 1.33 0.00 1017.3
20260502170235 0 10 7.8 12.2 0.00 1.33 0.00 1018.0
20260502164213 0 10 7.8 12.2 0.00 1.33 0.00 1018.1
20260502163702 0 19 8.7 13.0 0.00 1.33 0.00 1018.1
20260502163200 0 10 8.7 13.0 0.00 1.34 0.00 1018.2
20260502162650 0 10 8.7 12.2 0.00 1.35 0.00 1018.0
20260502162145 0 45 8.7 12.2 0.00 1.35 0.00 1018.0
20260502161642 0 30 7.8 12.2 0.00 1.35 0.00 1018.1
20260502161136 0 19 7.8 12.2 0.00 1.35 0.00 1018.0
20260502160634 0 38 7.8 11.3 0.00 1.35 0.00 1018.0
20260502160130 0 359 7.8 11.3 0.00 1.35 0.00 1018.0
20260502152023 0 15 8.7 13.0 0.00 1.35 0.00 1017.5
20260502151746 0 54 8.7 13.0 0.00 1.35 0.00 1017.4
20260502151236 0 55 7.8 12.2 0.00 1.35 0.00 1017.5
20260502150456 0 46 7.8 12.2 0.00 1.35 0.00 1017.4
20260502130615 0 10 8.7 13.0 0.00 1.35 0.00 1016.4
20260502130106 0 10 7.8 13.0 0.00 1.35 0.00 1016.4
20260502123517 0 10 7.0 10.4 0.00 1.35 0.00 1016.2
20260502123007 0 10 7.0 10.4 0.00 1.35 0.00 1016.1
20260502122458 0 10 7.0 9.6 0.00 1.35 0.00 1016.0
20260502121947 0 0 7.0 10.4 0.00 1.35 0.00 1015.9
20260502121438 0 5 7.0 10.4 0.00 1.35 0.00 1015.7
20260502120927 0 10 7.0 10.4 0.00 1.35 0.00 1015.6
20260502120418 0 10 7.0 10.4 0.00 1.35 0.00 1015.5
20260502120143 0 10 6.1 10.4 0.00 1.35 0.00 1015.4
20260502115401 0 5 7.0 10.4 0.00 1.35 0.00 1015.4
20260502114852 0 10 6.1 10.4 0.00 1.35 0.00 1015.3
20260502114612 0 10 4.3 9.6 0.00 1.35 0.00 1015.3
20260502113829 0 10 3.5 7.8 0.00 1.35 0.00 1015.3
20260502113318 0 10 4.3 10.4 0.00 1.35 0.00 1015.3
20260502112807 0 5 3.5 10.4 0.00 1.35 0.00 1015.2
20260502112258 0 10 3.5 8.7 0.00 1.35 0.00 1015.1
20260502111748 0 339 4.3 8.7 0.00 1.35 0.00 1015.1
20260502111236 0 10 4.3 10.4 0.00 1.35 0.00 1015.0
20260502110725 0 347 4.3 8.7 0.00 1.35 0.00 1014.8
20260502110226 0 10 5.2 8.7 0.00 1.35 0.00 1014.7
20260502105946 0 10 4.3 8.7 0.00 1.35 0.00 1014.7
20260502105203 0 10 4.3 8.7 0.00 1.35 0.00 1014.7
20260502104645 0 10 3.5 8.7 0.00 1.35 0.00 1014.6
20260502104135 0 26 4.3 8.7 0.00 1.35 0.00 1014.5
20260502103856 0 22 5.2 9.6 0.00 1.35 0.00 1014.4
20260502103116 0 10 5.2 9.6 0.00 1.35 0.00 1014.3
20260502102605 0 10 4.3 8.7 0.00 1.35 0.00 1014.2
20260502102055 0 10 2.6 7.8 0.00 1.35 0.00 1014.0
20260502101816 0 28 3.5 9.6 0.00 1.35 0.00 1013.9
20260502101028 0 10 3.5 9.6 0.00 1.35 0.00 1013.8
20260502100517 0 10 1.7 7.0 0.00 1.35 0.00 1013.7
20260502091322 0 19 5.2 10.4 0.00 1.35 0.00 1013.8
20260502090811 0 10 5.2 10.4 0.00 1.35 0.00 1013.8
20260502090532 0 15 5.2 10.4 0.00 1.35 0.00 1013.6
20260502071510 0 27 7.0 11.3 0.00 1.35 0.00 1012.8
20260502071007 0 10 7.0 11.3 0.00 1.35 0.00 1012.8
20260502070504 0 58 7.0 10.4 0.00 1.35 0.00 1013.0
20260502065959 0 10 7.8 13.0 0.00 1.35 0.00 1013.1
20260502065453 0 38 7.8 13.0 0.00 1.35 0.00 1013.1
20260502064947 0 45 7.8 13.0 0.00 1.35 0.00 1013.2
20260502064447 0 39 7.0 13.0 0.00 1.35 0.00 1013.2
20260502063941 0 10 7.0 12.2 0.00 1.35 0.00 1013.1
20260502063433 0 10 7.0 11.3 0.00 1.35 0.00 1013.0
20260502062934 0 22 6.1 11.3 0.00 1.35 0.00 1013.1
20260502062430 0 10 6.1 11.3 0.00 1.35 0.00 1013.0
20260502061916 0 20 6.1 11.3 0.00 1.35 0.00 1012.9
20260502061637 0 1 7.8 14.8 0.00 1.35 0.00 1012.9
20260502060901 0 26 8.7 14.8 0.00 1.35 0.00 1012.9
20260502060400 0 35 8.7 13.0 0.00 1.35 0.00 1012.7
20260502055859 0 1 8.7 13.9 0.00 1.35 0.00 1012.6
20260502055353 0 0 7.8 12.2 0.00 1.35 0.00 1012.5
20260502054847 0 44 7.8 13.9 0.00 1.35 0.00 1012.4
20260502054341 0 39 7.8 13.0 0.00 1.35 0.00 1012.4
20260502053835 0 10 7.8 13.9 0.00 1.35 0.00 1012.4
20260502053328 0 23 7.0 13.0 0.00 1.35 0.00 1012.4
20260502052823 0 34 6.1 11.3 0.00 1.35 0.00 1012.4
20260502052318 0 15 7.0 10.4 0.00 1.35 0.00 1012.3
20260502051812 0 43 7.0 13.0 0.00 1.35 0.00 1012.4
20260502051259 0 10 7.8 13.0 0.00 1.35 0.00 1012.2
20260502050751 0 57 8.7 14.8 0.00 1.35 0.00 1012.3
20260502050514 0 30 9.6 15.6 0.00 1.35 0.00 1012.1
20260502045739 0 35 10.4 16.5 0.00 1.35 1.35 1012.1
20260502045233 0 25 9.6 15.6 0.00 1.35 1.35 1011.9
20260502044723 0 27 10.4 16.5 0.00 1.35 1.35 1011.9
20260502044213 0 10 10.4 16.5 0.00 1.35 1.35 1011.8
20260502043704 0 10 9.6 18.2 0.00 1.35 1.35 1011.7
20260502043155 0 10 9.6 18.2 0.00 1.35 1.35 1011.6
20260502042916 0 10 10.4 20.9 0.00 1.35 1.35 1011.5
20260502042136 0 34 11.3 20.9 0.00 1.35 1.35 1011.4
20260502041625 0 15 10.4 15.6 0.00 1.35 1.35 1011.3
20260502041105 0 21 9.6 15.6 0.00 1.35 1.35 1011.3
20260502040827 0 10 9.6 13.9 0.00 1.35 1.35 1011.3
20260502040322 0 10 9.6 17.4 0.00 1.35 1.35 1011.4
20260502035539 0 10 9.6 17.4 0.00 1.35 1.35 1011.3
20260502035029 0 36 8.7 14.8 0.00 1.35 1.35 1011.3
20260502034007 0 15 7.8 16.5 0.00 1.35 1.35 1011.0
20260502033457 0 346 7.8 16.5 0.00 1.35 1.35 1011.1
20260502033218 0 15 8.7 14.8 0.00 1.35 1.35 1011.2
20260502032703 0 27 7.8 15.6 0.00 1.35 1.35 1011.2
20260502031925 0 46 7.8 15.6 0.00 1.35 1.35 1011.2
20260502031416 0 15 7.8 14.8 0.00 1.35 1.35 1011.0
20260502031136 0 10 7.8 14.8 0.00 1.35 1.35 1010.7
20260502030355 0 40 7.0 13.9 0.00 1.35 1.35 1010.7
20260502025846 0 15 7.8 14.8 0.00 1.35 1.35 1010.6
20260502025333 0 10 8.7 14.8 0.00 1.35 1.35 1010.4
20260502024827 0 38 8.7 14.8 0.00 1.35 1.35 1010.4
20260502024317 0 42 8.7 16.5 0.00 1.35 1.35 1010.2
20260502023812 0 5 9.6 16.5 0.00 1.35 1.35 1010.3
20260502023302 0 34 7.8 14.8 0.00 1.35 1.35 1010.0
20260502022801 0 15 7.0 13.0 0.00 1.35 1.35 1010.1
20260502022251 0 44 7.8 15.6 0.00 1.35 1.35 1009.8